| time (UTC) | temp F | wind direction | speed knots | gust knots | rain 1hr in | rain 24hr in | rain mn in | humidity % | barometer mb |
| 20260510170903 | 37 | 233 | 3.5 | 7.8 | 0.00 | 0.00 | 0.00 | 99 | 962.2 |
| 20260510170333 | 37 | 255 | 4.3 | 9.6 | 0.00 | 0.00 | 0.00 | 98 | 962.2 |
| 20260510165833 | 37 | 272 | 5.2 | 10.4 | 0.00 | 0.00 | 0.00 | 99 | 962.2 |
| 20260510165332 | 37 | 254 | 5.2 | 12.2 | 0.00 | 0.00 | 0.00 | 99 | 962.2 |
| 20260510164832 | 37 | 235 | 5.2 | 12.2 | 0.00 | 0.00 | 0.00 | 98 | 962.1 |
| 20260510164332 | 37 | 205 | 5.2 | 10.4 | 0.00 | 0.00 | 0.00 | 98 | 962.2 |
| 20260510163832 | 37 | 249 | 6.1 | 9.6 | 0.00 | 0.00 | 0.00 | 99 | 962.5 |
| 20260510163332 | 37 | 259 | 6.1 | 12.2 | 0.00 | 0.00 | 0.00 | 98 | 962.5 |
| 20260510162832 | 37 | 238 | 5.2 | 12.2 | 0.00 | 0.00 | 0.00 | 10 | 962.4 |
| 20260510162332 | 37 | 207 | 5.2 | 12.2 | 0.00 | 0.00 | 0.00 | 99 | 962.4 |
| 20260510161832 | 37 | 208 | 5.2 | 11.3 | 0.00 | 0.00 | 0.00 | 10 | 962.5 |
| 20260510161332 | 36 | 255 | 5.2 | 11.3 | 0.00 | 0.00 | 0.00 | 10 | 962.7 |
| 20260510160832 | 36 | 246 | 5.2 | 10.4 | 0.00 | 0.00 | 0.00 | 10 | 962.7 |
| 20260510160332 | 36 | 239 | 5.2 | 10.4 | 0.00 | 0.00 | 0.00 | 10 | 962.6 |
| 20260510155802 | 36 | 228 | 5.2 | 9.6 | 0.00 | 0.00 | 0.00 | 10 | 962.6 |
| 20260510155305 | 36 | 244 | 4.3 | 9.6 | 0.00 | 0.00 | 0.00 | 10 | 962.6 |
| 20260510154802 | 36 | 232 | 4.3 | 9.6 | 0.00 | 0.00 | 0.00 | 10 | 962.7 |
| 20260510154302 | 35 | 244 | 4.3 | 9.6 | 0.00 | 0.00 | 0.00 | 10 | 962.8 |
| 20260510153802 | 35 | 252 | 4.3 | 9.6 | 0.00 | 0.00 | 0.00 | 10 | 962.8 |
| 20260510153302 | 35 | 240 | 4.3 | 7.8 | 0.00 | 0.00 | 0.00 | 10 | 962.8 |
| 20260510152802 | 35 | 256 | 4.3 | 9.6 | 0.00 | 0.00 | 0.00 | 10 | 962.9 |
| 20260510152306 | 35 | 242 | 4.3 | 9.6 | 0.00 | 0.00 | 0.00 | 10 | 963.0 |
| 20260510151802 | 35 | 202 | 4.3 | 9.6 | 0.00 | 0.00 | 0.00 | 10 | 963.1 |
| 20260510151302 | 35 | 220 | 3.5 | 8.7 | 0.00 | 0.00 | 0.00 | 10 | 963.1 |
| 20260510150732 | 35 | 230 | 3.5 | 7.0 | 0.00 | 0.00 | 0.00 | 10 | 963.2 |
| 20260510150232 | 35 | 218 | 3.5 | 7.8 | 0.00 | 0.00 | 0.00 | 10 | 963.4 |
| 20260510145702 | 35 | 206 | 3.5 | 7.8 | 0.00 | 0.00 | 0.00 | 10 | 963.4 |
| 20260510145202 | 35 | 253 | 4.3 | 7.8 | 0.00 | 0.00 | 0.00 | 10 | 963.4 |
| 20260510144702 | 35 | 199 | 3.5 | 7.8 | 0.00 | 0.00 | 0.00 | 10 | 963.5 |
| 20260510144202 | 35 | 219 | 4.3 | 9.6 | 0.00 | 0.00 | 0.00 | 10 | 963.5 |
| 20260510143702 | 35 | 207 | 4.3 | 9.6 | 0.00 | 0.00 | 0.00 | 10 | 963.6 |
| 20260510143202 | 35 | 234 | 3.5 | 8.7 | 0.00 | 0.00 | 0.00 | 10 | 963.6 |
| 20260510142702 | 35 | 254 | 4.3 | 8.7 | 0.00 | 0.00 | 0.00 | 10 | 963.7 |
| 20260510142202 | 35 | 221 | 4.3 | 7.8 | 0.00 | 0.00 | 0.00 | 10 | 963.8 |
| 20260510141632 | 35 | 230 | 2.6 | 7.8 | 0.00 | 0.00 | 0.00 | 10 | 963.8 |
| 20260510141132 | 35 | 228 | 2.6 | 7.0 | 0.00 | 0.00 | 0.00 | 10 | 963.9 |
| 20260510140632 | 35 | 182 | 2.6 | 7.0 | 0.00 | 0.00 | 0.00 | 10 | 963.8 |
| 20260510140132 | 35 | 196 | 3.5 | 7.8 | 0.00 | 0.00 | 0.00 | 10 | 963.9 |
| 20260510135632 | 35 | 242 | 3.5 | 7.8 | 0.00 | 0.00 | 0.00 | 10 | 963.9 |
| 20260510135131 | 35 | 251 | 4.3 | 9.6 | 0.00 | 0.00 | 0.00 | 10 | 963.8 |
| 20260510134631 | 35 | 227 | 4.3 | 9.6 | 0.00 | 0.00 | 0.00 | 10 | 963.9 |
| 20260510134132 | 35 | 216 | 3.5 | 8.7 | 0.00 | 0.00 | 0.00 | 10 | 964.0 |
| 20260510133631 | 35 | 262 | 3.5 | 7.0 | 0.00 | 0.00 | 0.00 | 10 | 964.1 |
| 20260510133131 | 35 | 237 | 3.5 | 7.0 | 0.00 | 0.00 | 0.00 | 10 | 964.0 |
| 20260510132631 | 35 | 241 | 3.5 | 7.8 | 0.00 | 0.00 | 0.00 | 10 | 964.1 |
| 20260510132131 | 35 | 230 | 3.5 | 7.8 | 0.00 | 0.00 | 0.00 | 10 | 964.3 |
| 20260510131631 | 35 | 215 | 4.3 | 8.7 | 0.00 | 0.00 | 0.00 | 10 | 964.2 |
| 20260510131131 | 35 | 223 | 4.3 | 8.7 | 0.00 | 0.00 | 0.00 | 10 | 964.2 |
| 20260510130631 | 35 | 191 | 4.3 | 9.6 | 0.00 | 0.00 | 0.00 | 10 | 964.3 |
| 20260510130131 | 35 | 249 | 4.3 | 9.6 | 0.00 | 0.00 | 0.00 | 10 | 964.4 |
| 20260510125631 | 35 | 203 | 4.3 | 10.4 | 0.00 | 0.00 | 0.00 | 10 | 964.5 |
| 20260510125131 | 35 | 197 | 4.3 | 10.4 | 0.00 | 0.00 | 0.00 | 10 | 964.4 |
| 20260510124631 | 35 | 227 | 4.3 | 8.7 | 0.00 | 0.00 | 0.00 | 10 | 964.5 |
| 20260510124131 | 35 | 252 | 4.3 | 8.7 | 0.00 | 0.00 | 0.00 | 10 | 964.6 |
| 20260510123631 | 35 | 195 | 4.3 | 8.7 | 0.00 | 0.00 | 0.00 | 10 | 964.6 |
| 20260510123131 | 36 | 226 | 3.5 | 9.6 | 0.00 | 0.00 | 0.00 | 10 | 964.7 |
| 20260510122631 | 36 | 233 | 3.5 | 9.6 | 0.00 | 0.00 | 0.00 | 10 | 964.7 |
| 20260510122131 | 36 | 226 | 3.5 | 9.6 | 0.00 | 0.00 | 0.00 | 10 | 964.7 |
| 20260510121631 | 36 | 178 | 3.5 | 7.8 | 0.00 | 0.00 | 0.00 | 10 | 964.8 |
| 20260510121131 | 36 | 207 | 3.5 | 7.8 | 0.00 | 0.00 | 0.00 | 10 | 964.8 |
| 20260510120631 | 36 | 218 | 3.5 | 8.7 | 0.00 | 0.00 | 0.00 | 10 | 964.8 |
| 20260510120131 | 36 | 247 | 3.5 | 10.4 | 0.00 | 0.00 | 0.00 | 10 | 965.0 |
| 20260510115601 | 36 | 176 | 3.5 | 10.4 | 0.00 | 0.00 | 0.00 | 10 | 965.1 |
| 20260510115101 | 36 | 255 | 2.6 | 7.0 | 0.00 | 0.00 | 0.00 | 10 | 965.2 |
| 20260510114601 | 36 | 230 | 2.6 | 7.0 | 0.00 | 0.00 | 0.00 | 10 | 965.3 |
| 20260510114101 | 36 | 240 | 2.6 | 6.1 | 0.00 | 0.00 | 0.00 | 10 | 965.2 |
| 20260510113601 | 36 | 260 | 2.6 | 6.1 | 0.00 | 0.00 | 0.00 | 10 | 965.3 |
| 20260510113031 | 36 | 229 | 3.5 | 7.8 | 0.00 | 0.00 | 0.00 | 10 | 965.3 |
| 20260510112531 | 36 | 189 | 3.5 | 7.8 | 0.00 | 0.00 | 0.00 | 10 | 965.3 |
| 20260510112031 | 36 | 236 | 2.6 | 6.1 | 0.00 | 0.00 | 0.00 | 10 | 965.4 |
| 20260510111501 | 36 | 243 | 2.6 | 7.0 | 0.00 | 0.00 | 0.00 | 10 | 965.4 |
| 20260510111001 | 36 | 218 | 2.6 | 9.6 | 0.00 | 0.00 | 0.00 | 99 | 965.6 |
| 20260510110431 | 37 | 223 | 2.6 | 9.6 | 0.00 | 0.00 | 0.00 | 98 | 965.5 |
| 20260510105901 | 38 | 165 | 2.6 | 7.0 | 0.00 | 0.00 | 0.00 | 98 | 965.7 |
| 20260510105331 | 38 | 209 | 2.6 | 6.1 | 0.00 | 0.00 | 0.00 | 97 | 965.7 |
| 20260510104831 | 38 | 235 | 2.6 | 6.1 | 0.00 | 0.00 | 0.00 | 99 | 965.8 |
| 20260510104331 | 38 | 239 | 3.5 | 6.1 | 0.00 | 0.00 | 0.00 | 98 | 965.8 |
| 20260510103831 | 38 | 237 | 3.5 | 6.1 | 0.00 | 0.00 | 0.00 | 99 | 965.8 |
| 20260510103331 | 38 | 246 | 3.5 | 7.0 | 0.00 | 0.00 | 0.00 | 99 | 965.7 |
| 20260510102831 | 38 | 252 | 3.5 | 7.8 | 0.00 | 0.00 | 0.00 | 98 | 965.8 |
| 20260510102301 | 38 | 288 | 3.5 | 8.7 | 0.00 | 0.00 | 0.00 | 98 | 965.8 |
| 20260510101801 | 38 | 281 | 3.5 | 8.7 | 0.00 | 0.00 | 0.00 | 98 | 965.8 |
| 20260510101301 | 38 | 260 | 3.5 | 7.0 | 0.00 | 0.00 | 0.00 | 98 | 965.9 |
| 20260510100801 | 38 | 257 | 3.5 | 7.8 | 0.00 | 0.00 | 0.00 | 97 | 965.8 |
| 20260510100300 | 38 | 250 | 3.5 | 7.8 | 0.00 | 0.00 | 0.00 | 97 | 966.0 |
| 20260510095800 | 38 | 248 | 3.5 | 7.8 | 0.00 | 0.00 | 0.00 | 96 | 966.0 |
| 20260510095300 | 38 | 264 | 3.5 | 7.8 | 0.00 | 0.00 | 0.00 | 98 | 966.3 |
| 20260510094800 | 38 | 212 | 4.3 | 7.8 | 0.00 | 0.00 | 0.00 | 97 | 966.3 |
| 20260510094300 | 38 | 285 | 4.3 | 7.8 | 0.00 | 0.00 | 0.00 | 96 | 966.3 |
| 20260510093800 | 38 | 207 | 3.5 | 7.8 | 0.00 | 0.00 | 0.00 | 99 | 966.3 |
| 20260510093300 | 38 | 223 | 3.5 | 5.2 | 0.00 | 0.00 | 0.00 | 98 | 966.3 |
| 20260510092730 | 38 | 223 | 3.5 | 5.2 | 0.00 | 0.00 | 0.00 | 98 | 966.5 |
| 20260510092200 | 38 | 306 | 3.5 | 5.2 | 0.00 | 0.00 | 0.00 | 97 | 966.5 |
| 20260510091700 | 38 | 283 | 3.5 | 6.1 | 0.00 | 0.00 | 0.00 | 98 | 966.5 |
| 20260510091200 | 38 | 311 | 3.5 | 6.1 | 0.00 | 0.00 | 0.00 | 98 | 966.7 |
| 20260510090700 | 38 | 278 | 2.6 | 5.2 | 0.00 | 0.00 | 0.00 | 98 | 966.7 |
| 20260510090200 | 38 | 316 | 2.6 | 6.1 | 0.00 | 0.00 | 0.00 | 98 | 966.7 |
| 20260510085700 | 38 | 295 | 2.6 | 7.0 | 0.00 | 0.00 | 0.00 | 98 | 966.8 |
| 20260510085200 | 38 | 293 | 2.6 | 7.0 | 0.00 | 0.00 | 0.00 | 99 | 966.8 |
| 20260510084630 | 38 | 270 | 3.5 | 7.8 | 0.00 | 0.00 | 0.00 | 98 | 966.8 |
| 20260510084100 | 38 | 287 | 2.6 | 7.8 | 0.00 | 0.00 | 0.00 | 97 | 967.0 |
| 20260510083600 | 38 | 306 | 2.6 | 5.2 | 0.00 | 0.00 | 0.00 | 98 | 966.9 |
| 20260510083100 | 38 | 304 | 2.6 | 5.2 | 0.00 | 0.00 | 0.00 | 99 | 967.1 |
| 20260510082600 | 38 | 327 | 2.6 | 4.3 | 0.00 | 0.00 | 0.00 | 98 | 967.2 |
| 20260510082100 | 38 | 285 | 2.6 | 4.3 | 0.00 | 0.00 | 0.00 | 99 | 967.2 |
| 20260510081600 | 37 | 316 | 2.6 | 5.2 | 0.00 | 0.00 | 0.00 | 10 | 967.3 |
| 20260510081030 | 37 | 294 | 2.6 | 5.2 | 0.00 | 0.00 | 0.00 | 10 | 967.4 |
| 20260510080530 | 37 | 281 | 2.6 | 5.2 | 0.00 | 0.00 | 0.00 | 10 | 967.4 |
| 20260510080030 | 36 | 294 | 2.6 | 5.2 | 0.00 | 0.00 | 0.00 | 10 | 967.5 |
| 20260510075500 | 36 | 277 | 2.6 | 5.2 | 0.00 | 0.00 | 0.00 | 10 | 967.7 |
| 20260510075000 | 36 | 273 | 2.6 | 6.1 | 0.00 | 0.00 | 0.00 | 10 | 967.6 |
| 20260510074500 | 36 | 252 | 2.6 | 7.0 | 0.00 | 0.00 | 0.00 | 10 | 967.7 |
| 20260510073930 | 35 | 311 | 2.6 | 7.0 | 0.00 | 0.00 | 0.00 | 10 | 967.6 |
| 20260510073430 | 35 | 255 | 2.6 | 5.2 | 0.00 | 0.00 | 0.00 | 10 | 967.7 |
| 20260510072930 | 35 | 246 | 2.6 | 5.2 | 0.00 | 0.00 | 0.00 | 10 | 967.8 |
| 20260510072400 | 35 | 253 | 2.6 | 5.2 | 0.00 | 0.00 | 0.00 | 10 | 967.9 |
| 20260510071900 | 35 | 269 | 2.6 | 5.2 | 0.00 | 0.00 | 0.00 | 10 | 967.8 |
| 20260510071400 | 34 | 246 | 2.6 | 6.1 | 0.00 | 0.00 | 0.00 | 10 | 968.1 |
| 20260510070900 | 34 | 250 | 2.6 | 6.1 | 0.00 | 0.00 | 0.00 | 10 | 968.2 |
| 20260510070400 | 34 | 239 | 2.6 | 6.1 | 0.00 | 0.00 | 0.00 | 10 | 968.2 |
| 20260510065830 | 34 | 241 | 2.6 | 5.2 | 0.00 | 0.00 | 0.00 | 10 | 968.2 |
| 20260510065330 | 34 | 235 | 2.6 | 5.2 | 0.00 | 0.00 | 0.00 | 10 | 968.2 |
| 20260510064800 | 34 | 212 | 2.6 | 6.1 | 0.00 | 0.00 | 0.00 | 10 | 968.3 |
| 20260510064300 | 34 | 243 | 1.7 | 6.1 | 0.00 | 0.00 | 0.00 | 10 | 968.3 |
| 20260510063759 | 35 | 220 | 1.7 | 6.1 | 0.00 | 0.00 | 0.00 | 10 | 968.3 |
| 20260510063259 | 35 | 258 | 1.7 | 5.2 | 0.00 | 0.00 | 0.00 | 10 | 968.4 |
| 20260510062729 | 35 | 169 | 2.6 | 6.1 | 0.00 | 0.00 | 0.00 | 10 | 968.4 |
| 20260510062229 | 35 | 257 | 3.5 | 7.0 | 0.00 | 0.00 | 0.00 | 10 | 968.4 |
| 20260510061729 | 35 | 211 | 4.3 | 8.7 | 0.00 | 0.00 | 0.00 | 10 | 968.4 |
| 20260510061229 | 36 | 198 | 4.3 | 8.7 | 0.00 | 0.00 | 0.00 | 10 | 968.2 |
| 20260510060659 | 36 | 224 | 4.3 | 8.7 | 0.00 | 0.00 | 0.00 | 10 | 968.3 |
| 20260510060159 | 37 | 229 | 4.3 | 8.7 | 0.00 | 0.00 | 0.00 | 10 | 968.2 |
| 20260510055659 | 37 | 260 | 4.3 | 7.8 | 0.00 | 0.00 | 0.00 | 10 | 968.3 |
| 20260510055159 | 37 | 234 | 4.3 | 8.7 | 0.00 | 0.00 | 0.00 | 10 | 968.3 |
| 20260510054659 | 37 | 265 | 4.3 | 8.7 | 0.00 | 0.00 | 0.00 | 10 | 968.2 |
| 20260510054159 | 37 | 259 | 4.3 | 8.7 | 0.00 | 0.00 | 0.00 | 10 | 968.2 |
| 20260510053659 | 37 | 288 | 4.3 | 7.8 | 0.00 | 0.00 | 0.00 | 10 | 968.2 |
| 20260510053159 | 37 | 265 | 4.3 | 7.8 | 0.00 | 0.00 | 0.00 | 10 | 968.3 |
| 20260510052659 | 37 | 283 | 4.3 | 7.8 | 0.00 | 0.00 | 0.00 | 10 | 968.4 |
| 20260510052159 | 37 | 263 | 4.3 | 7.8 | 0.00 | 0.00 | 0.00 | 10 | 968.3 |
| 20260510051629 | 37 | 291 | 4.3 | 7.8 | 0.00 | 0.00 | 0.00 | 10 | 968.3 |
| 20260510051129 | 37 | 258 | 3.5 | 7.8 | 0.00 | 0.00 | 0.00 | 10 | 968.3 |
| 20260510050629 | 37 | 258 | 3.5 | 6.1 | 0.00 | 0.00 | 0.00 | 10 | 968.4 |
| 20260510050129 | 37 | 286 | 3.5 | 6.1 | 0.00 | 0.00 | 0.00 | 10 | 968.7 |
| 20260510045629 | 37 | 264 | 3.5 | 6.1 | 0.00 | 0.00 | 0.00 | 10 | 968.6 |
| 20260510045129 | 37 | 257 | 4.3 | 7.8 | 0.00 | 0.00 | 0.00 | 10 | 968.6 |
| 20260510044629 | 37 | 264 | 4.3 | 7.8 | 0.00 | 0.00 | 0.00 | 10 | 968.6 |
| 20260510044059 | 37 | 260 | 4.3 | 7.0 | 0.00 | 0.00 | 0.00 | 10 | 968.4 |
| 20260510043559 | 37 | 274 | 4.3 | 7.0 | 0.00 | 0.00 | 0.00 | 10 | 968.3 |
| 20260510043059 | 38 | 237 | 4.3 | 7.0 | 0.00 | 0.00 | 0.00 | 10 | 968.5 |
| 20260510042559 | 38 | 279 | 4.3 | 7.0 | 0.00 | 0.00 | 0.00 | 10 | 968.5 |
| 20260510042059 | 38 | 256 | 4.3 | 6.1 | 0.00 | 0.00 | 0.00 | 10 | 968.4 |
| 20260510041559 | 38 | 268 | 3.5 | 6.1 | 0.00 | 0.00 | 0.00 | 10 | 968.5 |
| 20260510041059 | 38 | 249 | 3.5 | 6.1 | 0.00 | 0.00 | 0.00 | 10 | 968.5 |
| 20260510040559 | 38 | 265 | 3.5 | 6.1 | 0.00 | 0.00 | 0.00 | 10 | 968.6 |
| 20260510040059 | 38 | 247 | 2.6 | 6.1 | 0.00 | 0.00 | 0.00 | 10 | 968.6 |
| 20260510035559 | 38 | 265 | 1.7 | 5.2 | 0.00 | 0.00 | 0.00 | 10 | 968.6 |
| 20260510035059 | 38 | 269 | 1.7 | 3.5 | 0.00 | 0.00 | 0.00 | 10 | 968.6 |
| 20260510034559 | 38 | 263 | 1.7 | 5.2 | 0.00 | 0.00 | 0.00 | 10 | 968.6 |
| 20260510034059 | 38 | 294 | 3.5 | 5.2 | 0.00 | 0.00 | 0.00 | 10 | 968.5 |
| 20260510033558 | 38 | 15 | 3.5 | 5.2 | 0.00 | 0.00 | 0.00 | 10 | 968.7 |
| 20260510033058 | 38 | 19 | 2.6 | 7.8 | 0.00 | 0.00 | 0.00 | 10 | 968.7 |
| 20260510032528 | 38 | 335 | 2.6 | 7.8 | 0.00 | 0.00 | 0.00 | 10 | 968.7 |
| 20260510031958 | 38 | 15 | 3.5 | 7.8 | 0.00 | 0.00 | 0.00 | 10 | 968.7 |
| 20260510031458 | 38 | 314 | 2.6 | 7.8 | 0.00 | 0.00 | 0.00 | 10 | 968.8 |
| 20260510030958 | 38 | 18 | 2.6 | 8.7 | 0.00 | 0.00 | 0.00 | 10 | 968.8 |
| 20260510030458 | 38 | 305 | 3.5 | 8.7 | 0.00 | 0.00 | 0.00 | 10 | 968.9 |
| 20260510025928 | 38 | 278 | 3.5 | 7.0 | 0.00 | 0.00 | 0.00 | 10 | 968.9 |
| 20260510025358 | 38 | 288 | 2.6 | 7.0 | 0.00 | 0.00 | 0.00 | 10 | 968.9 |
| 20260510024828 | 38 | 305 | 3.5 | 7.0 | 0.00 | 0.00 | 0.00 | 10 | 969.1 |
| 20260510024328 | 38 | 262 | 4.3 | 7.0 | 0.00 | 0.00 | 0.00 | 10 | 969.2 |
| 20260510023828 | 38 | 249 | 4.3 | 7.8 | 0.00 | 0.00 | 0.00 | 10 | 969.2 |
| 20260510023258 | 38 | 265 | 4.3 | 7.8 | 0.00 | 0.00 | 0.00 | 10 | 969.2 |
| 20260510022758 | 38 | 241 | 4.3 | 7.8 | 0.00 | 0.00 | 0.00 | 10 | 969.3 |
| 20260510022258 | 39 | 295 | 4.3 | 7.8 | 0.00 | 0.00 | 0.00 | 10 | 969.3 |
| 20260510021728 | 39 | 256 | 4.3 | 7.8 | 0.00 | 0.00 | 0.00 | 10 | 969.4 |
| 20260510021158 | 39 | 252 | 4.3 | 7.8 | 0.00 | 0.00 | 0.00 | 10 | 969.5 |
| 20260510020658 | 39 | 278 | 4.3 | 7.8 | 0.00 | 0.00 | 0.00 | 10 | 969.4 |
| 20260510020158 | 39 | 291 | 3.5 | 7.8 | 0.00 | 0.00 | 0.00 | 10 | 969.4 |
| 20260510015658 | 39 | 262 | 3.5 | 7.8 | 0.00 | 0.00 | 0.00 | 10 | 969.6 |
| 20260510015128 | 39 | 288 | 4.3 | 7.0 | 0.00 | 0.00 | 0.00 | 10 | 969.7 |
| 20260510014628 | 39 | 225 | 4.3 | 7.0 | 0.00 | 0.00 | 0.00 | 10 | 969.7 |
| 20260510014128 | 39 | 256 | 4.3 | 7.8 | 0.00 | 0.00 | 0.00 | 10 | 969.7 |
| 20260510013558 | 40 | 223 | 4.3 | 7.8 | 0.00 | 0.00 | 0.00 | 10 | 969.9 |
| 20260510013058 | 40 | 251 | 3.5 | 6.1 | 0.00 | 0.00 | 0.00 | 10 | 969.8 |
| 20260510012558 | 40 | 221 | 3.5 | 6.1 | 0.00 | 0.00 | 0.00 | 10 | 969.7 |
| 20260510012058 | 40 | 235 | 3.5 | 6.1 | 0.00 | 0.00 | 0.00 | 10 | 969.6 |
| 20260510011558 | 40 | 251 | 2.6 | 6.1 | 0.00 | 0.00 | 0.00 | 10 | 969.8 |
| 20260510011028 | 41 | 259 | 2.6 | 5.2 | 0.00 | 0.00 | 0.00 | 10 | 969.9 |
| 20260510010528 | 41 | 249 | 1.7 | 4.3 | 0.00 | 0.00 | 0.00 | 10 | 969.9 |
| 20260510010028 | 41 | 262 | 1.7 | 4.3 | 0.00 | 0.00 | 0.00 | 10 | 970.0 |
| 20260510005458 | 41 | 184 | 1.7 | 4.3 | 0.00 | 0.00 | 0.00 | 10 | 969.9 |
| 20260510004958 | 41 | 51 | 2.6 | 4.3 | 0.00 | 0.00 | 0.00 | 10 | 970.0 |
| 20260510004428 | 41 | 22 | 3.5 | 5.2 | 0.00 | 0.00 | 0.00 | 10 | 970.0 |
| 20260510003928 | 41 | 24 | 2.6 | 5.2 | 0.00 | 0.00 | 0.00 | 99 | 970.0 |
| 20260510003428 | 41 | 40 | 1.7 | 3.5 | 0.00 | 0.00 | 0.00 | 98 | 970.1 |
| 20260510002928 | 42 | 24 | 0.9 | 3.5 | 0.00 | 0.00 | 0.00 | 98 | 970.2 |
| 20260510002428 | 42 | 98 | 0.9 | 3.5 | 0.00 | 0.00 | 0.00 | 98 | 970.1 |
| 20260510001928 | 42 | 238 | 0.9 | 5.2 | 0.00 | 0.00 | 0.00 | 98 | 970.0 |
| 20260510001428 | 42 | 282 | 1.7 | 6.1 | 0.00 | 0.00 | 0.00 | 98 | 969.8 |
| 20260510000928 | 42 | 189 | 2.6 | 7.0 | 0.00 | 0.00 | 0.00 | 99 | 969.9 |
| 20260510000358 | 42 | 203 | 3.5 | 9.6 | 0.00 | 0.00 | 0.00 | 98 | 969.9 |
| 20260509235858 | 42 | 195 | 2.6 | 9.6 | 0.00 | 0.00 | 0.00 | 98 | 970.0 |
| 20260509235358 | 42 | 222 | 2.6 | 9.6 | 0.00 | 0.00 | 0.00 | 97 | 970.0 |
| 20260509234858 | 42 | 202 | 2.6 | 10.4 | 0.00 | 0.00 | 0.00 | 97 | 970.0 |
| 20260509234357 | 43 | 149 | 3.5 | 10.4 | 0.00 | 0.00 | 0.00 | 96 | 970.0 |
| 20260509233857 | 43 | 208 | 3.5 | 11.3 | 0.00 | 0.00 | 0.00 | 95 | 970.0 |
| 20260509233357 | 43 | 182 | 4.3 | 11.3 | 0.00 | 0.00 | 0.00 | 92 | 969.9 |
| 20260509232857 | 44 | 182 | 3.5 | 10.4 | 0.00 | 0.00 | 0.00 | 88 | 969.9 |
| 20260509232357 | 45 | 187 | 3.5 | 10.4 | 0.00 | 0.00 | 0.00 | 83 | 970.0 |
| 20260509231857 | 46 | 91 | 2.6 | 10.4 | 0.00 | 0.00 | 0.00 | 79 | 970.0 |
| 20260509231357 | 46 | 144 | 2.6 | 10.4 | 0.00 | 0.00 | 0.00 | 74 | 969.8 |
| 20260509230857 | 47 | 193 | 3.5 | 7.8 | 0.00 | 0.00 | 0.00 | 71 | 969.7 |
| 20260509230357 | 47 | 137 | 3.5 | 8.7 | 0.00 | 0.00 | 0.00 | 70 | 969.7 |
| 20260509225857 | 47 | 222 | 3.5 | 8.7 | 0.00 | 0.00 | 0.00 | 69 | 969.8 |
| 20260509225357 | 47 | 174 | 4.3 | 7.8 | 0.00 | 0.00 | 0.00 | 68 | 969.8 |
| 20260509224858 | 47 | 177 | 3.5 | 7.8 | 0.00 | 0.00 | 0.00 | 68 | 969.8 |
| 20260509224357 | 47 | 234 | 3.5 | 7.8 | 0.00 | 0.00 | 0.00 | 67 | 969.8 |
| 20260509223857 | 47 | 141 | 3.5 | 7.8 | 0.00 | 0.00 | 0.00 | 66 | 969.9 |
| 20260509223328 | 48 | 212 | 3.5 | 8.7 | 0.00 | 0.00 | 0.00 | 66 | 969.8 |
| 20260509222827 | 48 | 206 | 3.5 | 8.7 | 0.00 | 0.00 | 0.00 | 65 | 969.8 |
| 20260509222327 | 48 | 266 | 3.5 | 9.6 | 0.00 | 0.00 | 0.00 | 65 | 969.8 |
| 20260509221827 | 48 | 239 | 3.5 | 9.6 | 0.00 | 0.00 | 0.00 | 64 | 969.8 |
| 20260509221327 | 48 | 256 | 3.5 | 9.6 | 0.00 | 0.00 | 0.00 | 63 | 969.8 |
| 20260509220827 | 48 | 266 | 3.5 | 11.3 | 0.00 | 0.00 | 0.00 | 63 | 969.8 |
| 20260509220327 | 48 | 271 | 3.5 | 11.3 | 0.00 | 0.00 | 0.00 | 62 | 969.9 |
| 20260509215827 | 48 | 83 | 3.5 | 11.3 | 0.00 | 0.00 | 0.00 | 61 | 969.9 |
| 20260509215257 | 48 | 195 | 3.5 | 7.0 | 0.00 | 0.00 | 0.00 | 61 | 969.9 |
| 20260509214727 | 48 | 169 | 3.5 | 7.8 | 0.00 | 0.00 | 0.00 | 60 | 970.0 |
| 20260509214227 | 49 | 194 | 2.6 | 8.7 | 0.00 | 0.00 | 0.00 | 59 | 970.0 |
| 20260509213727 | 49 | 252 | 3.5 | 8.7 | 0.00 | 0.00 | 0.00 | 59 | 970.2 |
| 20260509213227 | 49 | 246 | 4.3 | 13.0 | 0.00 | 0.00 | 0.00 | 58 | 970.2 |
| 20260509212727 | 49 | 280 | 4.3 | 13.0 | 0.00 | 0.00 | 0.00 | 57 | 970.3 |
| 20260509212227 | 49 | 248 | 3.5 | 13.0 | 0.00 | 0.00 | 0.00 | 56 | 970.2 |
| 20260509211657 | 49 | 21 | 3.5 | 10.4 | 0.00 | 0.00 | 0.00 | 55 | 970.3 |
| 20260509211157 | 49 | 193 | 2.6 | 8.7 | 0.00 | 0.00 | 0.00 | 55 | 970.4 |
| 20260509210657 | 49 | 226 | 3.5 | 8.7 | 0.00 | 0.00 | 0.00 | 55 | 970.5 |
| 20260509210157 | 49 | 229 | 3.5 | 9.6 | 0.00 | 0.00 | 0.00 | 55 | 970.4 |
| 20260509205657 | 49 | 234 | 3.5 | 16.5 | 0.00 | 0.00 | 0.00 | 55 | 970.4 |
| 20260509205157 | 49 | 187 | 3.5 | 16.5 | 0.00 | 0.00 | 0.00 | 55 | 970.4 |
| 20260509204657 | 49 | 214 | 2.6 | 10.4 | 0.00 | 0.00 | 0.00 | 56 | 970.6 |
| 20260509204157 | 49 | 195 | 3.5 | 8.7 | 0.00 | 0.00 | 0.00 | 55 | 970.6 |
| 20260509203657 | 49 | 260 | 3.5 | 11.3 | 0.00 | 0.00 | 0.00 | 55 | 970.6 |
| 20260509203127 | 49 | 288 | 3.5 | 11.3 | 0.00 | 0.00 | 0.00 | 55 | 970.6 |
| 20260509202626 | 49 | 233 | 3.5 | 11.3 | 0.00 | 0.00 | 0.00 | 54 | 970.6 |
| 20260509202126 | 49 | 266 | 2.6 | 7.0 | 0.00 | 0.00 | 0.00 | 55 | 970.8 |
| 20260509201626 | 49 | 235 | 2.6 | 7.8 | 0.00 | 0.00 | 0.00 | 55 | 970.8 |
| 20260509201056 | 49 | 256 | 2.6 | 7.8 | 0.00 | 0.00 | 0.00 | 55 | 970.8 |
| 20260509200556 | 49 | 264 | 2.6 | 7.8 | 0.00 | 0.00 | 0.00 | 55 | 970.8 |
| 20260509200056 | 50 | 268 | 2.6 | 7.8 | 0.00 | 0.00 | 0.00 | 56 | 970.9 |
| 20260509195556 | 49 | 298 | 3.5 | 7.8 | 0.00 | 0.00 | 0.00 | 55 | 970.9 |
| 20260509195026 | 50 | 210 | 3.5 | 10.4 | 0.00 | 0.00 | 0.00 | 55 | 971.0 |
| 20260509194456 | 50 | 240 | 4.3 | 10.4 | 0.00 | 0.00 | 0.00 | 56 | 970.9 |
| 20260509193956 | 50 | 190 | 4.3 | 9.6 | 0.00 | 0.00 | 0.00 | 56 | 970.9 |
| 20260509193456 | 50 | 175 | 4.3 | 9.6 | 0.00 | 0.00 | 0.00 | 56 | 970.9 |
| 20260509192956 | 50 | 231 | 4.3 | 10.4 | 0.00 | 0.00 | 0.00 | 56 | 971.1 |
| 20260509192426 | 50 | 224 | 4.3 | 10.4 | 0.00 | 0.00 | 0.00 | 55 | 970.9 |
| 20260509191926 | 50 | 226 | 4.3 | 8.7 | 0.00 | 0.00 | 0.00 | 54 | 971.0 |
| 20260509191356 | 51 | 234 | 4.3 | 17.4 | 0.00 | 0.00 | 0.00 | 53 | 971.0 |
| 20260509190856 | 51 | 179 | 5.2 | 17.4 | 0.00 | 0.00 | 0.00 | 53 | 971.0 |
| 20260509190356 | 51 | 259 | 4.3 | 15.6 | 0.00 | 0.00 | 0.00 | 52 | 970.9 |
| 20260509185856 | 51 | 240 | 4.3 | 9.6 | 0.00 | 0.00 | 0.00 | 52 | 971.0 |
| 20260509185326 | 51 | 266 | 3.5 | 12.2 | 0.00 | 0.00 | 0.00 | 53 | 971.0 |
| 20260509184826 | 50 | 227 | 4.3 | 13.0 | 0.00 | 0.00 | 0.00 | 53 | 970.9 |
| 20260509184326 | 50 | 228 | 4.3 | 13.0 | 0.00 | 0.00 | 0.00 | 55 | 971.2 |
| 20260509183826 | 50 | 67 | 4.3 | 8.7 | 0.00 | 0.00 | 0.00 | 56 | 971.2 |
| 20260509183326 | 50 | 28 | 3.5 | 8.7 | 0.00 | 0.00 | 0.00 | 56 | 971.1 |
| 20260509182826 | 50 | 21 | 2.6 | 5.2 | 0.00 | 0.00 | 0.00 | 58 | 971.0 |
| 20260509182326 | 50 | 270 | 3.5 | 5.2 | 0.00 | 0.00 | 0.00 | 59 | 971.1 |
| 20260509181756 | 50 | 15 | 3.5 | 5.2 | 0.00 | 0.00 | 0.00 | 58 | 971.1 |
| 20260509181256 | 50 | 14 | 2.6 | 4.3 | 0.00 | 0.00 | 0.00 | 58 | 971.2 |
| 20260509180755 | 51 | 12 | 0.9 | 3.5 | 0.00 | 0.00 | 0.00 | 57 | 971.2 |
| 20260509180255 | 51 | 44 | 0.0 | 2.6 | 0.00 | 0.00 | 0.00 | 57 | 971.4 |
| 20260509175755 | 51 | 308 | 0.0 | 1.7 | 0.00 | 0.00 | 0.00 | 58 | 971.2 |
| 20260509175255 | 51 | 128 | 0.0 | 1.7 | 0.00 | 0.00 | 0.00 | 58 | 971.3 |
| 20260509174755 | 51 | 91 | 0.0 | 2.6 | 0.00 | 0.00 | 0.00 | 58 | 971.4 |
| 20260509174255 | 51 | 226 | 0.9 | 3.5 | 0.00 | 0.00 | 0.00 | 59 | 971.3 |
| 20260509173725 | 51 | 70 | 0.9 | 3.5 | 0.00 | 0.00 | 0.00 | 59 | 971.4 |
| 20260509173225 | 51 | 98 | 0.9 | 4.3 | 0.00 | 0.00 | 0.00 | 60 | 971.6 |
| 20260509172655 | 51 | 46 | 1.7 | 4.3 | 0.00 | 0.00 | 0.00 | 59 | 971.7 |
| 20260509172155 | 51 | 134 | 1.7 | 4.3 | 0.00 | 0.00 | 0.00 | 59 | 971.7 |
| 20260509171655 | 51 | 131 | 1.7 | 5.2 | 0.00 | 0.00 | 0.00 | 60 | 971.7 |
| 20260509171155 | 51 | 158 | 1.7 | 5.2 | 0.00 | 0.00 | 0.00 | 59 | 971.8 |